Location: Frydek-Mistek
(49.6830°N, 18.3330°E)
Time: 10:44:06
(UTC+02:00)

ISS - Pass Details

Date: 21 May 2021
Orbit: 417 x 422 km, 51.6° (Epoch: 13 June)

Event Time Altitude Azimuth Distance (km) Brightness Sun altitude
Rises 22:08:31 0° 273° (W) 2,364 0.7 -12.0°
Reaches altitude 10° 22:10:38 10° 278° (W) 1,501 -0.3 -12.2°
Maximum altitude 22:13:58 59° 358° (N) 489 -3.2 -12.5°
Drops below altitude 10° 22:17:19 10° 80° (E) 1,504 -1.2 -12.8°
Enters shadow 22:18:23 - 82° (E) 1,936 -0.7 -12.9°
